Regional Weather Roundup
Issued by NWS

Home | Current Version | Previous Version | Text Only | Print | Product List | Glossary On
Versions: 1 2 3 4 5 6 7 8 9 10 11 12 13 14 15 16 17 18 19 20 21 22 23 24 25 26 27 28 29 30 31 32 33 34 35 36 37 38 39 40 41 42 43 44 45 46 47 48 49 50
000
ASUS43 KFSD 030502
RWRSD

WEATHER ROUNDUP FOR SOUTH DAKOTA
NATIONAL WEATHER SERVICE SIOUX FALLS SD
1200 AM CDT WED SEP 03 2014

NOTE: "FAIR" INDICATES FEW OR NO CLOUDS BELOW 12,000 FEET WITH NO
SIGNIFICANT WEATHER AND/OR OBSTRUCTIONS TO VISIBILITY.


SDZ001>005-009-010-012>017-030600-
NORTHWEST AND NORTH CENTRAL SOUTH DAKOTA

CITY           SKY/WX    TMP DP  RH WIND       PRES   REMARKS
BUFFALO          N/A     56  47  71 E9        29.71F
FAITH            N/A     60  49  66 E9        29.76F
MOBRIDGE       CLEAR     64  53  67 NE13      29.73F
$$

SDZ012>016-024>037-041>051-057-063-072>074-030600-
SOUTHWEST AND SOUTH CENTRAL SOUTH DAKOTA

CITY           SKY/WX    TMP DP  RH WIND       PRES   REMARKS
RAPID CTY ARPT CLEAR     55  47  74 CALM      29.79F
PIERRE         CLEAR     64  56  75 E6        29.74F
CUSTER         CLEAR     50  36  58 CALM      29.92F
ELLSWORTH AFB  CLEAR     63  46  54 SW6       29.78F
PHILIP         CLEAR     60  48  64 E6        29.74F
PINE RIDGE     CLEAR     57  49  74 CALM      29.78F
WINNER         FAIR      71  60  68 S12       29.78S
$$

SDZ004>011-016>023-039-040-030600-
NORTHEAST SOUTH DAKOTA

CITY           SKY/WX    TMP DP  RH WIND       PRES   REMARKS
ABERDEEN       CLEAR     62  56  80 S12       29.77S
WATERTOWN      CLEAR     60  56  86 SE8       29.83S
SISSETON         N/A     68  56  65 SW13      29.77S
$$

SDZ017-020-022-023-036>040-048>070-030600-
SOUTHEAST SOUTH DAKOTA

CITY           SKY/WX    TMP DP  RH WIND       PRES   REMARKS
SIOUX FALLS    CLEAR     67  57  70 S13       29.88S
HURON          CLEAR     65  59  81 S8        29.79F
CHAMBERLAIN    PTCLDY    66  59  78 SE9       29.78S
MITCHELL       PTCLDY    67  60  78 S13       29.82F
YANKTON        CLEAR     64  57  77 SE8       29.86F
$$

ABBREVIATIONS USED IN REMARKS
   TC - TEMPERATURE IN CELSIUS
  WCI - WIND CHILL INDEX
   HX - HEAT INDEX
  VSB - VISIBILITY




USA.gov is the U.S. government's official web portal to all federal, state and local government web resources and services.